This is the latest recevied weather packets stored in our database for station/object JE6MIQ-13. If no packets are shown the sender has not sent any weather packets the latest 10 day(s).
| Time | Temp. | Humidity | Pressure | Rain* | Wind** | Luminosity | Snow |
|---|---|---|---|---|---|---|---|
| 1777514552 | 16.11° C | 67% | 1014.7 hPa | 0 mm | - | - | - |
| 1777513952 | 16.11° C | 68% | 1015.1 hPa | 0 mm | - | - | - |
| 1777513352 | 15.56° C | 69% | 1015.1 hPa | 0 mm | - | - | - |
| 1777512752 | 15.56° C | 69% | 1015.1 hPa | 0 mm | - | - | - |
| 1777512153 | 15° C | 70% | 1015 hPa | 0 mm | - | - | - |
| 1777511551 | 15.56° C | 68% | 1015 hPa | 0 mm | - | - | - |
| 1777510953 | 15° C | 68% | 1015.1 hPa | 0 mm | - | - | - |
| 1777510354 | 15° C | 69% | 1015.2 hPa | 0 mm | - | - | - |
| 1777509754 | 15° C | 68% | 1015.2 hPa | 0 mm | - | - | - |
| 1777509154 | 14.44° C | 69% | 1015.5 hPa | 0 mm | - | - | - |
| 1777508553 | 13.89° C | 70% | 1015.8 hPa | 0 mm | - | - | - |
| 1777507954 | 13.33° C | 70% | 1015.9 hPa | 0 mm | - | - | - |
| 1777507354 | 13.33° C | 70% | 1015.9 hPa | 0 mm | - | - | - |
| 1777506752 | 13.33° C | 70% | 1015.9 hPa | 0 mm | - | - | - |
| 1777506153 | 13.33° C | 71% | 1015.9 hPa | 0 mm | - | - | - |
| 1777505554 | 13.33° C | 71% | 1015.8 hPa | 0 mm | - | - | - |
| 1777504954 | 12.78° C | 72% | 1015.8 hPa | 0 mm | - | - | - |
| 1777504352 | 12.78° C | 73% | 1015.8 hPa | 0 mm | - | - | - |
| 1777503753 | 12.78° C | 74% | 1015.8 hPa | 0 mm | - | - | - |
| 1777503153 | 12.78° C | 75% | 1016 hPa | 0 mm | - | - | - |
| 1777502554 | 12.78° C | 75% | 1016 hPa | 0 mm | - | - | - |
| 1777501953 | 12.22° C | 75% | 1016 hPa | 0 mm | - | - | - |
| 1777501353 | 12.22° C | 75% | 1016 hPa | 0 mm | - | - | - |
| 1777500753 | 12.22° C | 75% | 1016 hPa | 1.02 mm | - | - | - |
| 1777500153 | 12.22° C | 75% | 1016.2 hPa | 1.02 mm | - | - | - |
* Rain latest hour (hover to see other rain measurements)
** Current wind speed in m/s (hover to see current wind gust speed)